Location: Haliburton Scout Reserve
(45.0900°N, 78.3200°W)
Time: 23:20:34
(UTC-04:00)

AO-73 - Visible Passes

Search period start: 24 July 2024 00:00
Search period end: 03 August 2024 00:00
Orbit: 556 x 622 km, 97.7° (Epoch: 24 July)

Date Brightness Start Highest point End Pass type
(mag) Time Alt. Az. Time Alt. Az. Time Alt. Az.
24 Jul ? 03:30:46 10° NE 03:34:03 22° E 03:37:21 10° SE visible
24 Jul ? 05:05:46 10° N 05:09:38 37° WNW 05:13:34 10° SW visible
25 Jul ? 03:38:18 10° NE 03:41:52 26° E 03:45:27 10° SSE visible
25 Jul ? 05:13:38 10° N 05:17:21 31° WNW 05:21:08 10° SW visible
26 Jul ? 03:45:52 10° NNE 03:49:39 31° E 03:53:17 11° SSE visible
27 Jul ? 03:53:27 10° NNE 03:57:25 37° E 04:01:03 12° SSE visible
28 Jul ? 04:01:02 10° NNE 04:05:08 45° E 04:08:47 13° S visible
29 Jul ? 04:08:38 10° NNE 04:12:49 55° E 04:16:28 14° S visible
30 Jul ? 04:16:14 10° NNE 04:20:30 67° ESE 04:24:09 14° S visible
31 Jul ? 04:23:50 10° NNE 04:28:08 81° ESE 04:31:48 14° S visible
01 Aug ? 04:31:26 10° NNE 04:35:44 84° WNW 04:39:26 14° SSW visible
02 Aug ? 03:05:44 10° ENE 03:07:22 12° E 03:09:00 10° ESE visible
02 Aug ? 04:39:02 10° N 04:43:18 70° WNW 04:47:02 14° SSW visible
